Regional Weather Roundup
Issued by NWS

Home | Current Version | Previous Version | Text Only | Print | Product List | Glossary On
Versions: 1 2 3 4 5 6 7 8 9 10 11 12 13 14 15 16 17 18 19 20 21 22 23 24 25 26 27 28 29 30 31 32 33 34 35 36 37 38 39 40 41 42 43 44 45 46 47 48 49 50
000
ASUS44 KBMX 202110
RWRAL

ALABAMA REGIONAL WEATHER ROUNDUP
NATIONAL WEATHER SERVICE BIRMINGHAM AL
400 PM CDT FRI APR 20 2018

NOTE: "FAIR" INDICATES FEW OR NO CLOUDS BELOW 12,000 FEET
WITH NO SIGNIFICANT WEATHER AND/OR OBSTRUCTIONS TO VISIBILITY.

THE REMARK "TC" DENOTES TEMPERATURE IN DEGREES CELSIUS.

ALZ001>011-014-016>018-020-202200-
NORTH ALABAMA

CITY           SKY/WX    TMP DP  RH WIND       PRES   REMARKS
MUSCLE SHOALS  FAIR      69  32  25 NE8       30.29F
HUNTSVILLE     FAIR      69  32  25 VRB6      30.27F
DECATUR        FAIR      69  34  27 N7        30.28F
HALEYVILLE     FAIR      68  37  32 N8        30.29F
GADSDEN        FAIR      69  35  28 NE12G18   30.28F
$$

ALZ012-013-022-023-030>036-040>044-202200-
WEST CENTRAL ALABAMA

CITY           SKY/WX    TMP DP  RH WIND       PRES   REMARKS
TUSCALOOSA     FAIR      73  36  25 NE9       30.24F
DEMOPOLIS      FAIR      72  37  28 NE6       30.22F
$$

ALZ015-024>026-033>036-041>044-202200-
CENTRAL ALABAMA

CITY           SKY/WX    TMP DP  RH WIND       PRES   REMARKS
BIRMINGHAM     FAIR      69  32  25 NE6       30.28F
MONTGOMERY     FAIR      71  39  31 VRB7      30.23F
SHELBY CO ARPT FAIR      69  35  28 VRB7      30.25F
MAXWELL AFB    FAIR      69  36  29 E10       30.21F
GREENVILLE     FAIR      72  40  31 E9        30.20F
SELMA          FAIR      72  37  28 E7G14     30.22F
PRATTVILLE     FAIR      70  40  32 CALM      30.22F
BESSEMER       FAIR      69  32  25 NE10      30.26F
TALLADEGA      FAIR      70  29  21 CALM      30.26F
PELL CITY      CLEAR     70  34  26 N7G13     30.26F
MARION         FAIR      71  39  30 NE6       30.21F
SYLACAUGA      FAIR      71  38  30 CALM      30.25S
$$

ALZ019-021-028-029-037-038-045>048-202200-
EAST CENTRAL ALABAMA

CITY           SKY/WX    TMP DP  RH WIND       PRES   REMARKS
ANNISTON       FAIR      70  28  21 E9        30.25F
ALEXANDER CITY FAIR      68  42  38 NE9       30.24F
AUBURN         FAIR      69  39  33 NE8       30.25F
$$

ALZ051>064-202200-
SOUTHWEST ALABAMA

CITY           SKY/WX    TMP DP  RH WIND       PRES   REMARKS
MOBILE         FAIR      71  41  33 NE12      30.18F
BROOKLEY FIELD FAIR      72  44  36 N8        30.19F
EVERGREEN      FAIR      74  44  34 NE10      30.19F
$$

ALZ049-050-065>069-202200-
SOUTHEAST ALABAMA

CITY           SKY/WX    TMP DP  RH WIND       PRES   REMARKS
DOTHAN         FAIR      73  39  29 E10G17    30.22F
OZARK          FAIR      73  44  35 E10       30.19S
TROY           FAIR      72  43  35 E8        30.22F
EUFAULA        FAIR      74  42  31 VRB7      30.20F
$$



USA.gov is the U.S. government's official web portal to all federal, state and local government web resources and services.